TimeHST,TemperatureF,Dew PointF,Humidity,Sea Level PressureIn,VisibilityMPH,Wind Direction,Wind SpeedMPH,Gust SpeedMPH,PrecipitationIn,Events,Conditions,WindDirDegrees,DateUTC
12:01 AM,39.0,34.0,82,30.09,10.0,SSE,18.4,28.8,0.00,,Overcast,160,2013-01-10 10:01:00
1:01 AM,37.9,36.0,93,30.12,10.0,SE,15.0,20.7,N/A,,Overcast,140,2013-01-10 11:01:00
1:09 AM,39.2,35.6,87,29.84,10.0,SE,13.8,23.0,N/A,,Overcast,140,2013-01-10 11:09:00
1:30 AM,37.4,35.6,93,29.83,9.0,SE,11.5,-,N/A,,Overcast,130,2013-01-10 11:30:00
1:50 AM,37.4,35.6,93,29.83,9.0,SSE,5.8,-,N/A,,Overcast,150,2013-01-10 11:50:00
3:01 AM,37.0,35.1,93,30.07,9.0,SSE,9.2,-,N/A,,Overcast,150,2013-01-10 13:01:00
3:46 AM,35.6,35.6,100,29.80,5.0,ESE,12.7,20.7,N/A,,Overcast,110,2013-01-10 13:46:00
4:01 AM,36.0,35.1,97,30.09,4.0,SE,11.5,17.3,N/A,,Overcast,130,2013-01-10 14:01:00
5:01 AM,35.1,35.1,100,30.05,5.0,SE,12.7,23.0,0.00,,Overcast,140,2013-01-10 15:01:00
6:01 AM,35.6,35.6,100,29.74,10.0,SE,16.1,23.0,0.00,,Overcast,140,2013-01-10 16:01:00
7:01 AM,36.0,35.1,97,30.00,10.0,SE,13.8,23.0,0.00,,Overcast,130,2013-01-10 17:01:00
8:01 AM,39.2,33.8,81,29.68,10.0,SSE,23.0,32.2,N/A,,Mostly Cloudy,160,2013-01-10 18:01:00
8:08 AM,39.2,33.8,81,29.67,10.0,South,26.5,35.7,N/A,,Scattered Clouds,170,2013-01-10 18:08:00
9:01 AM,39.2,35.6,87,29.67,10.0,SSE,12.7,24.2,N/A,,Mostly Cloudy,160,2013-01-10 19:01:00
9:13 AM,39.2,35.6,87,29.66,10.0,SSE,9.2,23.0,N/A,,Overcast,150,2013-01-10 19:13:00
9:22 AM,39.2,37.4,93,29.66,10.0,SSE,15.0,19.6,N/A,,Overcast,150,2013-01-10 19:22:00
10:01 AM,39.0,37.0,93,29.92,10.0,SSE,12.7,21.9,N/A,,Overcast,150,2013-01-10 20:01:00
11:01 AM,41.0,37.9,89,29.88,10.0,Variable,6.9,19.6,N/A,,Overcast,0,2013-01-10 21:01:00
11:42 AM,37.4,37.4,100,29.58,4.0,SSE,17.3,28.8,0.01,,Overcast,150,2013-01-10 21:42:00
12:01 PM,39.0,37.0,93,29.86,5.0,SE,18.4,29.9,0.01,,Overcast,130,2013-01-10 22:01:00
12:32 PM,37.4,37.4,100,29.55,2.5,SE,11.5,19.6,0.00,Rain,Light Rain,140,2013-01-10 22:32:00
12:43 PM,37.4,37.4,100,29.54,3.0,SE,11.5,21.9,0.00,Rain,Light Rain,140,2013-01-10 22:43:00
12:52 PM,37.4,37.4,100,29.53,2.5,SE,10.4,18.4,0.00,Rain,Light Rain,140,2013-01-10 22:52:00
1:01 PM,37.9,37.0,97,29.81,2.5,SE,12.7,21.9,0.00,Rain,Light Rain,140,2013-01-10 23:01:00
2:01 PM,37.0,35.1,93,29.83,2.5,SE,17.3,25.3,0.15,Snow,Light Snow,140,2013-01-11 00:01:00
2:08 PM,37.4,35.6,93,29.54,3.0,SE,13.8,25.3,0.03,Snow,Light Snow,140,2013-01-11 00:08:00
2:27 PM,37.4,35.6,93,29.54,9.0,ESE,6.9,-,0.05,,Overcast,110,2013-01-11 00:27:00
3:01 PM,37.0,36.0,96,29.84,10.0,Calm,Calm,-,0.05,Rain,Light Rain,0,2013-01-11 01:01:00
3:35 PM,37.4,30.2,75,29.53,9.0,West,23.0,32.2,0.00,,Overcast,270,2013-01-11 01:35:00
4:01 PM,37.4,30.2,75,29.55,10.0,WSW,32.2,43.7,0.00,Rain,Light Rain,250,2013-01-11 02:01:00
5:01 PM,37.9,27.0,65,29.88,10.0,WSW,27.6,43.7,0.00,,Mostly Cloudy,250,2013-01-11 03:01:00
7:01 PM,37.0,27.0,67,29.96,10.0,WSW,18.4,32.2,0.00,,Clear,250,2013-01-11 05:01:00
7:46 PM,37.4,26.6,65,29.69,10.0,WSW,25.3,38.0,0.00,,Mostly Cloudy,240,2013-01-11 05:46:00
8:18 PM,37.4,28.4,70,29.71,10.0,WSW,24.2,34.5,0.00,,Scattered Clouds,240,2013-01-11 06:18:00
9:01 PM,37.0,26.1,65,30.03,10.0,WSW,27.6,33.4,0.00,,Clear,240,2013-01-11 07:01:00
10:01 PM,37.0,26.1,65,30.09,10.0,Variable,3.5,-,N/A,,Partly Cloudy,0,2013-01-11 08:01:00
11:01 PM,37.0,25.0,62,30.11,10.0,SSW,9.2,-,N/A,,Overcast,210,2013-01-11 09:01:00